Torna al catalogo

STARLINK-36733

AttivoComunicazioniSSO
NORAD 67811·PAYLOAD·🇺🇸 United States

Lanciato Feb 15, 2026 da Vandenberg Space Force Base

Loading…

Prossimi Passaggi (prossime 24 ore)

TLE

AggiornatoSource: CelesTrak SupGP

Epoca: Sep 14, 2026, 23:02 UTC

1 67811C 26032Q   26257.96020833  .00069024  00000+0  21430-2 0  2578
2 67811  97.2855  84.4921 0001604  92.4121 111.6164 15.33398911    13

Traccia STARLINK-36733 in tempo reale con AllMySat

Download on the App Store